Weather History for Dundee, United Kingdom

Change the Weather History Date:

Monday, October 17, 2011

  Actual Average Record
Temperature  
Mean Temperature 47 °F -  
Max Temperature 53 °F 50 °F 64 °F (1997)
Min Temperature 41 °F 43 °F 32 °F (2012)
Degree Days  
Heating Degree Days 18    
Moisture  
Dew Point 43 °F    
Average Humidity 90    
Maximum Humidity 100    
Minimum Humidity 77    
Precipitation  
Precipitation 0.00 in - - ()
Sea Level Pressure  
Sea Level Pressure 29.51 in    
Wind  
Wind Speed 18 mph ()    
Max Wind Speed 33 mph    
Max Gust Speed 46 mph    
Visibility 5.8 miles    
Events Rain    
Averages and records for this station are not official NWS values.
T = Trace of Precipitation, MM = Missing Value Source: Averaged Metar Reports

Daily Weather History Graph

Daily Weather History Graph

Search for Another Location

Airport:

Trip Planner

Search our weather history database for the weather conditions in past years. The results will help you decide how hot, cold, wet, or windy it might be!

Date:

Astronomy

Oct. 17, 2011 Rise Set
Actual Time 7:47 AM BST 6:06 PM BST
Civil Twilight 7:09 AM BST 6:44 PM BST
Nautical Twilight 6:25 AM BST 7:28 PM BST
Astronomical Twilight 5:41 AM BST 8:11 PM BST
Moon 8:42 PM BST (10/17) 1:34 PM BST (10/17)
Length of Visible Light 11h 35m
Length of Day
10h 19m
Waning Gibbous, 76% of the Moon is Illuminated
Oct 17
Waning Gibbous
Oct 20
Last Quarter
Oct 26
New
Nov 2
First Quarter
Nov 10
Full

Hourly Weather History & Observations

Time (BST) Temp. Windchill Dew Point Humidity Pressure Visibility Wind Dir Wind Speed Gust Speed Precip Events Conditions
6:20 AM 53.6 °F - 48.2 °F 82% 29.65 in 6.2 mi SW 31.1 mph - N/A   Partly Cloudy
6:50 AM 53.6 °F - 48.2 °F 82% 29.65 in 6.2 mi SW 26.5 mph 39.1 mph N/A   Partly Cloudy
7:20 AM 53.6 °F - 46.4 °F 77% 29.62 in 6.2 mi SW 28.8 mph - N/A   Scattered Clouds
7:50 AM 53.6 °F - 46.4 °F 77% 29.62 in 6.2 mi SW 33.4 mph 46.0 mph N/A   Partly Cloudy
8:20 AM 53.6 °F - 46.4 °F 77% 29.62 in 6.2 mi SW 33.4 mph - N/A   Partly Cloudy
8:50 AM 53.6 °F - 46.4 °F 77% 29.59 in 6.2 mi SW 32.2 mph - N/A   Scattered Clouds
9:20 AM 50.0 °F - 46.4 °F 87% 29.62 in 4.3 mi WSW 27.6 mph 42.6 mph N/A   Mostly Cloudy
9:50 AM 48.2 °F - 44.6 °F 87% 29.65 in 5.6 mi WSW 26.5 mph - N/A Rain Light Rain Showers
10:20 AM 46.4 °F 39.5 °F 44.6 °F 93% 29.62 in 6.2 mi WSW 17.3 mph - N/A Rain Light Rain Showers
10:50 AM 46.4 °F 39.8 °F 44.6 °F 93% 29.62 in 6.2 mi WSW 16.1 mph - N/A Rain Rain
11:20 AM 46.4 °F 39.8 °F 44.6 °F 93% 29.62 in 6.2 mi WSW 16.1 mph - N/A Rain Rain
11:50 AM 46.4 °F 40.1 °F 44.6 °F 93% 29.59 in 6.2 mi WSW 15.0 mph - N/A Rain Rain
12:20 PM 44.6 °F 37.4 °F 42.8 °F 93% 29.59 in 6.2 mi WSW 16.1 mph - N/A Rain Rain
12:50 PM 44.6 °F 38.4 °F 42.8 °F 93% 29.53 in 6.2 mi WSW 12.7 mph - N/A Rain Rain
1:20 PM 44.6 °F 39.2 °F 42.8 °F 93% 29.53 in 6.2 mi WSW 10.4 mph - N/A Rain Rain
1:50 PM 44.6 °F 38.8 °F 42.8 °F 93% 29.53 in 6.2 mi WSW 11.5 mph - N/A Rain Rain
2:20 PM 44.6 °F 39.7 °F 42.8 °F 93% 29.47 in 6.2 mi WSW 9.2 mph - N/A Rain Rain
2:50 PM 44.6 °F 41.4 °F 42.8 °F 93% 29.47 in 6.2 mi WSW 5.8 mph - N/A Rain Rain
3:20 PM 42.8 °F 38.6 °F 41.0 °F 93% 29.44 in 5.0 mi West 6.9 mph - N/A Rain Rain
3:50 PM 42.8 °F 39.3 °F 41.0 °F 93% 29.44 in 5.0 mi WNW 5.8 mph - N/A Rain Heavy Rain
4:20 PM 41.0 °F 37.1 °F 39.2 °F 93% 29.42 in 5.0 mi NW 5.8 mph - N/A Rain Rain
4:50 PM 41.0 °F 38.0 °F 39.2 °F 93% 29.39 in 5.0 mi NW 4.6 mph - N/A Rain Rain
5:20 PM 41.0 °F 39.0 °F 41.0 °F 100% 29.36 in 6.2 mi East 3.5 mph - N/A   Mostly Cloudy
5:50 PM 42.8 °F 36.2 °F 41.0 °F 93% 29.36 in 4.3 mi West 12.7 mph - N/A Rain Rain
6:20 PM 42.8 °F 35.8 °F 41.0 °F 93% 29.39 in 4.3 mi West 13.8 mph - N/A Rain Rain
6:50 PM 42.8 °F 37.0 °F 41.0 °F 93% 29.39 in 4.3 mi West 10.4 mph - N/A Rain Light Rain
7:20 PM 42.8 °F 37.0 °F 41.0 °F 93% 29.39 in 6.2 mi West 10.4 mph - N/A   Mostly Cloudy
7:50 PM 42.8 °F 36.2 °F 41.0 °F 93% 29.39 in 6.2 mi West 12.7 mph - N/A   Mostly Cloudy
8:20 PM 42.8 °F 33.8 °F 41.0 °F 93% 29.42 in 6.2 mi West 21.9 mph - N/A   Partly Cloudy
8:50 PM 42.8 °F 33.5 °F 41.0 °F 93% 29.42 in 6.2 mi WSW 23.0 mph - N/A   Partly Cloudy
9:20 PM 42.8 °F 34.8 °F 41.0 °F 93% 29.42 in 6.2 mi WSW 17.3 mph - N/A   Partly Cloudy
9:50 PM 44.6 °F 37.4 °F 42.8 °F 93% 29.42 in 6.2 mi West 16.1 mph - N/A   Partly Cloudy